Location: Bluff Heights
(33.7692°N, 118.1592°W)
Time: 00:17:49
(UTC+00:00)

Tianhe-1 - Visible Passes

Search period start: 23 June 2021 00:00
Search period end: 03 July 2021 00:00
Orbit: 375 x 385 km, 41.5° (Epoch: 22 June)

Date Brightness Start Highest point End Pass type
(mag) Time Alt. Az. Time Alt. Az. Time Alt. Az.
23 Jun 2.7 10:39:14 26° NW 10:39:46 28° NNW 10:42:33 10° NE visible
24 Jun 4.1 09:40:41 16° NE 09:40:41 16° NE 09:41:28 10° NE visible
24 Jun 3.5 11:13:17 10° NW 11:15:40 20° N 11:18:04 10° NE visible
25 Jun 3.3 10:14:08 22° N 10:14:08 22° N 10:16:42 10° NE visible
25 Jun 3.6 11:49:00 10° NW 11:51:29 21° N 11:53:59 10° ENE visible
26 Jun 3.7 10:47:31 10° NW 10:49:50 19° N 10:52:12 10° NE visible
27 Jun 3.9 09:48:47 18° NNE 09:48:47 18° NNE 09:50:25 10° NE visible
27 Jun 3.3 11:22:40 10° NW 11:25:21 25° NNE 11:28:02 10° ENE visible
28 Jun 3.6 10:22:13 16° NNW 10:23:28 21° N 10:25:56 10° ENE visible
28 Jun 1.8 11:57:29 10° WNW 12:00:34 55° NNE 12:03:39 10° ESE visible
29 Jun 4.6 09:23:40 11° NE 09:23:40 11° NE 09:23:47 10° NE visible
29 Jun 2.8 10:55:47 10° NW 10:58:40 33° NNE 11:01:33 10° E visible
30 Jun 3.7 09:57:36 20° NE 09:57:36 20° NE 09:59:13 10° ENE visible
30 Jun 0.9 11:30:23 10° WNW 11:33:31 85° SSW 11:36:38 10° ESE visible
01 Jul 2.2 10:32:06 41° ENE 10:32:06 41° ENE 10:34:29 10° E visible
01 Jul 2.3 12:05:28 10° W 12:07:57 22° SW 12:10:26 10° SSE visible
02 Jul 1.4 04:35:05 10° SW 04:37:42 41° S 04:37:42 41° S visible
02 Jul 2.5 11:07:22 25° SSE 11:07:22 25° SSE 11:08:53 10° SE visible
